CAPE
4 3 0 0 1 0 1 0 3 3 0 5 8 3 3 5 2 0 0 0 0 0 0 0 0 24 74 58 2 0 0 0 0 0 0 0 0 7
0 0 0 3 3 3 2 1 2 5 2 2 4 3 4 1 3 0 0 0 0 0 1 0 4 0 60 42 2 0 0 0 0 0 0 0 0 0
0 0 1 1 0 1 1 2 1 1 3 1 1 1 0 0 0 2 1 0 0 0 0 0 0 0 47 9 0 0 0 0 0 0 0 0 0 0
0 0 0 2 0 1 5 5 9 10 10 6 6 2 0 0 0 1 9 2 1 0 0 0 0 0 0 0 0 0 0 0 0 0 0 0 0 0
0 0 1 3 2 0 0 0 2 3 5 8 5 5 3 0 0 3 2 3 0 0 0 0 0 0 0 0 0 0 0 0 0 0 0 0 0 0
0 3 3 0 0 0 3 1 3 2 2 2 2 3 3 0 1 1 3 3 0 2 5 2 0 0 0 0 0 0 0 0 0 0 0 0 0 0
1 5 0 1 0 2 1 0 1 1 0 1 1 1 4 5 1 0 0 0 1 0 0 2 0 0 0 1 0 0 0 0 0 0 0 0 0 0
0 0 0 3 0 2 1 2 3 0 1 2 2 2 3 2 1 2 0 1 2 0 3 3 0 0 0 1 2 0 0 0 0 0 0 0 0 0
0 0 0 1 0 1 2 4 1 2 1 0 1 1 5 6 11 3 4 0 1 1 6 3 0 0 0 0 0 0 0 0 1 3 0 0 0 0
0 0 1 0 0 0 1 0 1 0 2 3 0 0 0 1 0 0 0 0 0 2 1 3 1 0 0 0 0 0 0 0 0 3 1 0 0 0
0 0 1 0 5 6 0 1 0 0 1 0 1 1 3 1 1 1 0 0 2 1 2 1 1 0 1 0 1 0 0 0 0 0 1 1 0 0
0 0 0 2 1 1 0 0 0 1 0 0 1 1 1 1 0 1 1 1 0 1 0 3 0 0 0 3 0 0 0 0 0 2 1 1 0 3
0 0 0 3 1 0 0 0 0 0 0 0 0 0 0 0 0 1 6 2 1 0 0 1 0 0 0 0 6 1 0 1 2 1 2 1 0 4
0 0 0 0 0 0 0 0 0 0 0 0 0 0 0 0 0 0 1 0 1 6 0 2 2 0 0 0 0 6 6 2 2 4 4 5 4 5
0 0 0 0 0 0 0 0 0 0 0 0 0 0 0 0 0 0 0 1 0 0 2 0 2 1 0 0 0 0 3 8 2 6 6 6 8 6
0 0 0 0 0 0 0 0 0 0 0 0 0 0 0 0 0 0 0 0 0 0 0 3 4 6 0 0 0 0 1 0 5 5 11 5 4 5
0 0 0 0 0 0 0 0 0 0 0 0 0 0 0 0 0 0 0 0 2 2 3 1 2 2 0 0 1 3 1 4 9 6 7 8 4 3
0 0 0 0 0 0 0 0 0 0 0 0 0 0 0 0 0 0 0 0 0 2 5 0 1 0 0 1 0 2 5 2 12 7 5 9 8 3
0 0 0 0 0 0 0 0 0 0 0 0 0 0 0 0 0 0 0 0 0 4 0 2 1 1 1 1 1 1 1 7 8 4 5 3 11 6
0 0 0 0 0 0 0 0 0 0 0 0 0 0 0 0 0 0 0 0 0 1 1 1 2 3 0 0 0 0 0 5 4 4 3 2 2 0
0 0 0 0 0 0 0 0 0 0 0 0 0 0 0 0 0 0 0 0 0 0 1 0 1 0 0 2 2 1 1 1 1 2 4 2 5 3
0 0 0 0 0 0 0 0 0 0 0 0 0 0 0 0 0 0 0 0 0 0 0 0 0 1 2 1 3 7 1 0 0 0 0 0 1 5
0 0 0 0 1 0 0 0 0 0 0 0 0 0 0 0 0 0 0 0 0 0 0 0 0 0 1 1 3 5 2 1 2 0 0 0 0 0
CIN
-1 -1 0 -0 0 -0 -0 -0 0 0 0 -0 -0 -1 -0 -0 -1 0 0 0 0 -12 -12 0 0 -0 -41 -81 -75 -78 0 0 0 0 0 0 0 -3
0 0 -0 -0 -0 -0 -0 -0 -0 0 0 -0 -0 -0 -0 -0 0 0 0 0 0 0 -23 0 -28 0 -38 -95 -104 -38 0 0 0 0 0 0 0 0
0 -0 -0 -0 -1 -0 -1 -1 -0 -0 0 -0 -0 -0 -0 -0 -0 -0 -1 0 0 0 0 0 0 0 -52 -31 0 0 0 0 0 0 0 0 0 0
0 0 -2 -1 -2 -1 -0 -0 0 0 0 0 -0 -0 -0 0 0 -0 0 0 -0 0 0 0 0 0 0 0 -46 0 0 0 0 0 0 0 0 0
0 -2 -1 -0 -0 -0 -0 -1 -0 -0 -0 0 0 -0 -0 -1 0 -0 -0 -0 0 0 0 0 0 0 0 0 0 0 0 0 0 0 0 0 0 0
0 -0 -0 -0 0 -0 -0 -0 -0 0 0 0 0 0 -0 -1 -1 -0 0 -0 0 -0 -2 -6 0 0 0 0 0 0 0 0 0 0 0 0 0 0
-0 0 0 -1 -1 -0 -0 -0 0 -0 -0 0 0 -0 0 -0 -0 -0 -0 0 -0 0 0 -1 0 0 0 0 0 0 0 0 0 0 0 0 0 0
0 0 0 -0 0 -1 -1 -1 -1 -0 -0 -0 -0 0 -0 -0 -1 -0 0 0 0 0 -1 0 0 0 0 0 0 0 0 0 0 0 0 0 0 0
-0 -0 -0 -0 -0 -0 -1 -0 -0 -1 -1 -1 0 -0 -0 -0 -0 -0 0 0 0 -0 -0 0 0 0 0 0 0 0 0 0 0 0 0 0 0 0
-0 0 -0 0 -1 -2 -0 -0 -0 -0 0 -0 0 0 0 -0 -0 -0 0 0 -0 -0 -0 0 -0 0 0 0 0 0 0 0 0 0 0 0 0 0
-0 -0 -1 -2 -0 -1 -0 -0 -0 -0 -0 -1 -1 -2 -1 -1 -1 -1 -0 0 0 0 -0 0 0 0 0 0 0 0 0 0 0 0 0 0 0 0
0 0 0 -1 -2 -2 0 0 -0 -0 -0 -0 -0 -0 -0 -0 -1 -1 -1 0 0 0 0 0 0 0 0 0 0 0 0 0 0 0 0 0 0 0
0 0 0 -1 -2 -1 -1 0 -1 -1 0 -1 -1 -0 -0 -0 -1 -0 -0 -0 0 0 0 -2 0 0 0 0 0 0 0 0 0 0 0 0 0 0
0 0 0 -1 0 0 0 -0 -0 -0 -0 0 0 0 0 0 0 -0 -0 -0 -0 -0 -0 -2 -0 0 0 0 0 0 0 0 0 0 0 0 0 0
0 0 0 0 0 0 0 0 0 0 0 0 0 0 0 0 0 -1 -1 -0 0 0 0 -0 0 0 0 0 0 0 0 0 0 0 0 0 0 0
0 0 0 0 0 0 0 0 0 0 0 0 0 0 0 0 0 0 0 -0 0 0 0 0 0 -0 0 0 0 0 0 0 0 0 0 0 0 0
0 0 0 0 0 0 0 0 0 0 0 0 0 0 0 0 0 0 0 0 0 0 0 0 0 0 0 0 0 0 0 0 0 0 0 0 0 0
0 0 0 0 0 0 0 0 0 0 0 0 0 0 0 0 0 0 0 0 0 0 0 0 0 0 0 0 0 0 0 0 0 0 0 0 0 0
0 0 0 0 0 0 0 0 0 0 0 0 0 0 0 0 0 0 0 0 0 0 0 0 0 0 0 0 0 0 0 0 0 0 0 0 0 0
0 0 0 0 0 0 0 0 0 0 0 0 0 0 0 0 0 0 0 0 0 0 0 0 0 0 0 0 0 0 0 0 0 0 0 0 0 0
0 0 0 0 0 0 0 0 0 0 0 0 0 0 0 0 0 0 0 0 0 0 0 0 0 0 0 0 0 0 0 0 0 0 0 0 0 0
0 0 0 0 0 0 0 0 0 0 0 0 0 0 0 0 0 0 0 0 0 0 0 0 0 0 0 0 0 0 0 0 0 0 0 0 0 0
0 0 -0 0 -1 0 0 0 0 0 0 0 0 0 0 0 0 0 0 0 0 0 0 0 0 0 0 0 0 0 0 0 0 0 0 0 0 0
Wind_Speed
38 38 40 41 41 42 44 45 48 57 56 47 48 44 44 44 44 46 47 46 46 41 39 59 68 72 41 38 36 34 31 29 29 30 30 28 27 26
41 43 42 42 43 43 43 43 45 51 61 52 51 49 48 47 45 48 49 51 49 45 31 27 59 60 52 41 39 36 35 31 30 27 31 31 28 27
41 42 43 43 43 43 43 44 46 47 57 56 53 50 49 51 50 47 47 48 48 48 48 46 54 61 62 48 41 40 37 33 31 29 27 33 31 28
44 43 43 42 43 43 44 46 47 47 53 61 55 56 52 49 50 50 46 46 48 51 50 52 48 50 50 44 42 36 37 38 34 31 29 29 29 29
44 44 45 45 45 44 46 47 47 48 51 55 57 52 52 50 48 49 46 47 48 51 54 53 52 47 52 53 45 43 40 39 38 33 31 30 29 28
43 43 44 45 46 46 45 46 47 49 50 53 55 54 52 50 49 50 48 43 47 46 48 48 46 47 43 54 63 52 47 40 40 37 34 33 31 29
42 42 44 44 44 45 45 46 50 51 53 54 56 55 53 52 51 49 50 47 48 49 51 49 42 43 46 40 56 64 50 44 49 40 37 35 34 31
44 44 43 42 45 45 47 49 50 51 53 53 54 55 54 53 51 51 51 51 49 40 44 46 43 43 47 44 43 52 44 55 44 41 40 37 35 32
44 45 44 43 44 46 49 49 48 48 49 51 54 54 54 51 51 53 53 52 53 49 46 51 45 49 44 49 50 55 49 48 49 43 42 41 37 33
42 43 44 45 44 49 49 49 47 47 46 48 51 54 55 54 55 56 58 60 59 55 49 56 49 50 43 43 46 48 44 47 54 46 46 43 41 36
41 42 44 44 48 49 48 48 48 48 48 50 51 52 53 54 54 54 55 56 59 55 44 49 50 46 43 46 46 47 49 44 49 52 51 51 45 41
40 41 43 45 48 48 47 47 49 50 52 51 49 49 49 50 50 50 51 56 55 53 45 47 46 39 44 39 39 41 48 48 51 40 45 50 47 46
38 41 43 47 47 46 45 44 47 51 50 50 49 49 49 49 48 48 49 52 56 60 47 39 39 41 40 35 37 37 38 42 45 45 47 44 43 42
37 37 41 47 46 44 43 45 47 47 48 49 49 50 50 50 50 51 52 54 57 62 54 45 50 43 43 41 39 36 34 34 41 42 41 42 40 40
37 37 41 45 44 42 42 43 45 46 47 49 51 51 50 51 52 51 51 54 56 59 57 47 54 49 46 46 44 40 35 36 41 36 36 38 40 38
38 36 39 42 43 42 42 42 44 46 48 50 51 52 50 49 48 48 51 52 56 56 51 48 50 51 48 46 45 40 42 44 41 37 38 38 38 38
39 37 39 45 47 45 43 43 45 46 48 51 52 52 50 48 46 45 46 48 52 50 48 44 44 46 45 42 43 42 45 42 38 37 38 40 39 37
40 42 40 42 47 46 44 44 46 48 49 51 52 52 48 44 42 41 40 41 42 46 46 37 35 35 36 38 41 46 48 43 41 41 37 40 40 36
42 42 41 39 46 47 44 44 46 47 48 50 52 49 45 40 38 36 35 33 34 35 39 35 37 37 38 43 44 43 48 41 38 38 38 40 39 36
42 41 41 39 40 49 46 45 47 48 48 50 51 46 41 38 36 34 31 30 28 29 32 37 42 40 37 43 42 40 39 39 36 38 36 32 29 27
43 42 40 38 39 41 48 47 47 48 48 48 47 43 40 37 35 33 30 29 26 24 28 31 34 35 28 24 35 37 33 34 34 36 35 34 34 32
43 42 40 38 38 39 42 49 48 47 48 47 45 42 40 37 35 33 30 29 26 25 26 28 29 30 31 36 36 36 37 31 27 28 29 31 35 38
43 40 41 39 39 40 38 49 48 46 47 46 44 42 41 38 36 33 30 28 26 25 25 24 25 29 31 28 27 26 29 29 28 28 27 24 25 23
Wind_Direction
323 320 317 313 310 307 304 301 299 295 290 294 295 297 296 297 296 292 285 282 283 283 273 248 244 232 225 222 219 222 218 217 220 228 229 227 226 230
322 318 315 312 309 307 304 301 299 294 286 291 292 292 293 293 295 292 284 279 280 279 275 252 247 244 230 225 224 220 226 221 226 223 232 233 230 228
324 321 317 314 311 308 305 301 298 295 287 287 289 290 289 289 290 292 287 279 278 274 270 268 251 247 235 216 228 229 226 220 219 221 221 235 234 232
322 321 318 318 315 312 308 302 299 296 291 284 287 288 287 289 288 287 287 281 277 270 267 264 265 258 254 243 227 216 225 226 220 219 214 219 228 232
323 320 317 316 314 314 310 304 301 297 292 288 286 289 288 289 287 287 286 281 276 269 263 263 261 261 251 247 239 230 229 223 224 217 216 216 221 223
324 322 320 317 313 312 311 308 303 299 295 290 287 287 287 288 287 284 283 284 277 274 270 267 264 260 259 251 246 238 232 224 222 219 214 216 214 220
328 325 322 318 317 314 311 309 304 299 293 289 286 286 285 285 283 283 278 281 279 274 269 267 266 260 258 251 245 239 232 226 230 220 221 215 212 216
328 326 325 322 319 316 313 307 303 299 294 291 287 285 286 283 283 279 277 276 277 282 271 272 267 262 259 256 247 242 239 233 227 224 227 223 214 218
331 326 324 323 321 318 314 311 307 302 296 292 287 286 285 284 283 278 274 272 270 273 274 267 271 263 261 257 254 246 247 239 234 228 229 231 227 221
339 332 325 322 322 319 316 313 311 306 301 297 291 287 284 284 281 277 272 269 267 268 271 263 266 264 263 259 256 249 244 239 236 233 232 231 231 229
346 338 329 324 319 318 318 315 312 310 307 300 297 292 288 284 282 278 270 267 264 265 270 263 261 264 263 258 255 250 243 243 247 238 235 234 236 236
351 344 334 327 322 319 318 316 313 311 310 306 300 297 293 287 284 277 272 264 264 267 270 260 259 262 261 260 257 253 244 247 243 234 234 234 234 238
358 351 342 328 326 321 320 319 317 312 313 310 305 300 296 290 285 281 273 267 261 258 264 268 261 256 259 260 257 251 244 244 241 239 236 234 230 232
5 360 351 336 329 323 322 317 318 318 318 316 311 306 299 293 287 282 276 270 263 259 261 262 257 254 251 256 253 247 243 237 236 237 235 233 231 231
12 6 358 345 329 328 322 320 321 323 320 318 318 313 305 297 290 284 280 273 267 261 258 257 254 252 251 249 248 247 239 237 235 234 232 230 229 228
13 12 4 355 345 330 325 324 326 327 325 325 319 316 310 303 293 286 280 274 268 260 256 252 250 247 246 245 247 245 239 239 237 236 232 233 232 230
15 15 12 360 345 335 328 326 327 329 330 331 327 321 314 306 297 290 284 276 269 256 253 251 243 242 244 244 245 244 237 239 234 231 228 230 232 231
15 15 15 10 352 337 328 326 330 330 330 331 333 328 317 308 300 294 289 281 271 253 247 242 233 232 243 245 246 240 234 236 232 226 225 226 229 230
14 14 14 14 5 341 329 327 326 329 328 332 334 325 318 310 306 298 294 285 272 258 242 236 230 228 232 243 239 235 231 228 222 224 222 225 226 226
12 12 12 13 13 353 331 328 327 328 328 330 332 324 319 315 310 305 299 291 281 264 247 237 233 231 236 235 229 230 227 224 218 217 218 222 224 221
8 9 11 12 12 10 338 332 329 329 328 328 326 323 321 319 315 311 303 299 288 274 251 243 243 241 233 233 230 227 226 224 225 223 215 215 218 222
6 7 8 10 10 11 5 337 330 329 329 328 325 323 322 321 318 314 309 302 292 279 260 256 250 242 237 236 233 230 225 224 227 216 226 234 225 228
4 5 6 7 8 8 9 348 332 328 329 326 324 323 323 322 321 317 313 305 296 283 270 262 253 245 238 234 230 230 218 216 219 223 228 231 235 229